Back to catalog

NUSTAR

AliveScienceVLEO
NORAD 38358·PAYLOAD·🇺🇸 United States

Launched Jun 13, 2012 from Ronald Reagan Space and Missile Test Range

Loading…

Next Passes (next 24 hours)

TLE

FreshSource: Space-Track

Epoch: Sep 14, 2026, 16:00 UTC

1 38358U 12031A   26257.66671296  .00005254  00000-0  26549-3 0  9994
2 38358   6.0257  82.5428 0007913 355.1263 129.3736 15.09532350  1301

Track NUSTAR in real time with AllMySat

Download on the App Store